Racecast

McNeil Hoka Invitational

Old Settlers Park · 3218m · Girls · 1A-3A · 2023-09-23 · TX

Course difficulty: +0.014

Race-day weather: 90°F · wind 36 mph · humidity 57%

View full meet →

Team scores

Place Team Points 12345 67
1 Poth (TX) 120 2 13 19 26 60 200 236
2 Hamilton (TX) 173 16 21 36 49 51 82 104
3 Lytle (TX) 181 14 23 44 46 54 63
4 Farwell (TX) 188 4 8 35 55 87 134 210
5 Goldthwaite (TX) 196 20 25 37 42 72 93
6 McGregor (TX) 211 10 18 47 59 77 81 155
7 Dalhart (TX) 218 28 33 38 57 62 64 118
8 Lorena (TX) 228 5 6 22 85 110 135 151
9 Muenster (TX) 276 7 39 53 71 106 126 148
10 San Antonio Cole (TX) 329 30 67 70 73 89 122 183
11 Tilden McMullen County (TX) 362 9 27 94 115 117 119
12 Rogers (TX) 386 45 61 80 95 105 128 145
13 Great Hearts Northern Oaks (TX) 388 11 24 48 150 156 164 193
14 Maypearl (TX) 426 1 15 109 133 168 180 184
15 IDEA Pharr (TX) 450 17 31 90 152 160 173 226
16 Pollok Central (TX) 489 41 43 99 137 169 205 209
17 Austin Regents (TX) 513 32 96 116 120 149 159 166
18 Ponder (TX) 519 69 76 111 123 140 162 189
19 Franklin (TX) 521 78 97 102 114 130 131 132
20 Mineola (TX) 539 68 74 84 146 167 215
21 Troy (TX) 555 40 88 92 163 172 194 216
22 Keene Smith (TX) 574 3 58 147 175 191
23 Ingram Moore (TX) 605 12 66 153 182 192 202 206
24 Fredericksburg (TX) 608 79 83 108 157 181
25 Lipan (TX) 628 65 101 136 141 185
26 Port Aransas (TX) 684 34 112 158 176 204 212 225
27 Santa Maria (TX) 709 29 98 186 197 199 213 230
28 Dilley (TX) 711 52 121 171 179 187 207 211
29 Florence (TX) 732 56 127 129 201 219
30 Moulton (TX) 734 86 125 138 188 196 203 208
31 Luling (TX) 745 75 124 144 174 228
32 Progreso (TX) 778 50 113 161 223 231 237
33 IDEA Kyle (TX) 804 107 142 143 198 214 222 242
34 Priddy (TX) 875 103 139 177 218 238
35 Veribest (TX) 926 100 170 195 229 232 233
36 Lasara (TX) 944 91 178 217 224 234 235
37 Meridian World (TX) 1024 154 190 220 221 239 241
38 Zephyr (TX) 1119 165 227 240 243 244

As scored by the meet.

Results

Rating scale ?
Place Athlete Grade School Time Rating Points
1 Sophia Bendet 11 Universal City Randolph (TX) 1 11:38 135.6
2 Makayla Stephens 12 Maypearl (TX) 1 11:45.8 134.1 1
3 Brooklyn Albert 10 Poth (TX) 1 11:52.2 132.9 2
4 Brynleigh McFarlin 10 Keene Smith (TX) 1 11:59.6 131.5 3
5 Aubrey Milam 11 Universal City Randolph (TX) 2 12:01.9 PR 131.1
6 Isabella Jaime 11 Farwell (MI) 1 12:12 SR 129.3 4
7 Jaylah Fish 9 Lorena (TX) 1 12:22.4 127.5 5
8 Landry Wagoner 12 Lorena (TX) 2 12:25.5 126.9 6
9 Emma Walterscheid 11 Muenster (TX) 1 12:27 SR 126.7 7
10 Lexi Wade 9 Farwell (MI) 2 12:28.3 PR 126.5 8
11 Isabella Billingsley 10 Tilden McMullen County (TX) 1 12:32.1 125.8 9
12 Melina Espinoza 9 McGregor (TX) 1 12:34.8 PR 125.4 10
13 Bella Haas 9 Great Hearts Northern Oaks (TX) 1 12:37.4 PR 124.9 11
14 Lillian Rumbo 9 Ingram Moore (TX) 1 12:38 124.8 12
15 Katelyn Poth 9 Poth (TX) 2 12:38.2 124.8 13
16 Frances Scotello 10 Lytle (TX) 1 12:40 124.5 14
17 Sheridan Van Blarcom 10 Maypearl (TX) 2 12:46.6 123.4 15
18 Chaska Downs 9 Hamilton (MI) 1 12:49.9 122.9 16
19 Naomi Cotero 11 IDEA Pharr (TX) 1 12:52.7 122.5 17
20 Jessika Valdez 9 McGregor (TX) 2 12:53.5 SR 122.3 18
21 Rylee Ellis 10 Poth (TX) 3 12:54.8 122.2 19
22 Rani House 12 Goldthwaite (TX) 1 12:56.2 SR 121.9 20
23 Anna Pearcy 10 Hamilton (MI) 2 12:59 121.5 21
24 Avery Heard 11 Lorena (TX) 3 13:00.9 SR 121.2 22
25 Klayre Cook 10 Lytle (TX) 2 13:04 120.7 23
26 Josie (Josephine) Davis 12 Great Hearts Northern Oaks (TX) 2 13:07.2 120.2 24
27 Payten McGee 9 Goldthwaite (TX) 2 13:08.3 120.1 25
28 Sadie Skloss 10 Poth (TX) 4 13:09.5 119.9 26
29 Camie Taylor 10 Tilden McMullen County (TX) 2 13:09.5 119.9 27
30 Victoria Terrazas 10 Dalhart (TX) 1 13:10.6 PR 119.7 28
31 Mia Picazo 12 Santa Maria (CA) 1 13:11.2 SR 119.6 29
32 Destiny Villegas 9 San Antonio Cole (TX) 1 13:11.6 119.6 30
33 Camila Alvarez 12 IDEA Pharr (TX) 2 13:11.7 PR 119.5 31
34 Mia Avery 12 Austin Regents (TX) 1 13:12.8 PR 119.4 32
35 Circe Johnson 10 Dalhart (TX) 2 13:13.6 SR 119.2 33
36 Emilee Schneider 12 Van Vleck (TX) 1 13:14 119.2
37 Elsa Temples 12 Port Aransas (TX) 1 13:17 118.7 34
38 Presley Miller 10 Farwell (MI) 3 13:18.1 PR 118.6 35
39 Peyton Sigsbee 11 Burton (CA) 1 13:18.7 118.5
40 Kaitlyn Walton 10 Hamilton (MI) 3 13:20.4 118.2 36
41 Madison Wood 11 Goldthwaite (TX) 3 13:22 PR 118.0 37
42 Danna Arriaga 11 Dalhart (TX) 3 13:24 PR 117.7 38
43 Emma Krebs 10 Muenster (TX) 2 13:24.2 SR 117.7 39
44 Celeste Mireles 11 Troy (MI) 1 13:25.7 SR 117.5 40
45 Danica Bell 9 Pollok Central (TX) 1 13:26.1 PR 117.4 41
46 Rylie Hillis 10 Goldthwaite (TX) 4 13:27.5 117.2 42
47 Sommer Bradberry 12 Pollok Central (TX) 2 13:27.6 PR 117.2 43
48 Vanessa Ayala 9 Lytle (TX) 3 13:28.3 117.1 44
49 Ariela Gutierrez 10 Rogers (MN) 1 13:29.1 SR 117.0 45
50 Laleina Riviera 9 Lytle (TX) 4 13:29.2 116.9 46
51 Mariah Moody 9 McGregor (TX) 3 13:30.9 PR 116.7 47
52 Madison Teague 9 Great Hearts Northern Oaks (TX) 3 13:31.7 116.6 48
53 Campbell Lengefeld 12 Hamilton (MI) 4 13:32.7 116.4 49
54 Alexa Galvan 11 Progreso (TX) 1 13:33.1 116.4 50
55 Presley Long 10 Hamilton (MI) 5 13:35 116.1 51
56 Chloe Rodriguez 12 Dilley (TX) 1 13:35.7 116.0 52
57 Carly McCoy 9 Muenster (TX) 3 13:36 PR 116.0 53
58 Svetlana Lopez 10 Lytle (TX) 5 13:38 115.7 54
59 Kadey Urbantke 12 Farwell (MI) 4 13:38.5 SR 115.6 55
60 Mary Bell 12 Florence (AL) 1 13:40.6 SR 115.3 56
61 Lyli Flores 11 Dalhart (TX) 4 13:42.3 SR 115.1 57
62 Eliana Mosqueda 9 Keene Smith (TX) 2 13:44.6 114.8 58
63 Estrella Ruiz 12 McGregor (TX) 4 13:44.6 SR 114.8 59
64 Jasmine Jones 12 Poth (TX) 5 13:44.7 114.8 60
65 Rubi Llanas 11 Rogers (MN) 2 13:45.6 SR 114.6 61
66 Mallory West 10 Midland Christian (TX) 1 13:46 114.6
67 Erin Cox 12 Dalhart (TX) 5 13:46.2 PR 114.6 62
68 Samantha Mujica 12 Lytle (TX) 6 13:46.4 114.5 63
69 Evelyn Quiroz 11 Dalhart (TX) 6 13:46.6 SR 114.5 64
70 Jacy Bolton 10 Lipan (TX) 1 13:47.8 114.3 65
71 Makenna Rumbo 11 Ingram Moore (TX) 2 13:48.6 114.2 66
72 Dakota Gaston 12 San Antonio Cole (TX) 2 13:48.8 114.2 67
73 Raylie Peebles 10 Mineola (TX) 1 13:50.3 114.0 68
74 Rylie Rivers 10 Ponder (TX) 1 13:50.4 114.0 69
75 Reagan O'Neal 10 San Antonio Cole (TX) 3 13:51.9 113.8 70
76 Allie Stoffels 10 Muenster (TX) 4 13:53.2 SR 113.6 71
77 Addisyn Howard 11 Goldthwaite (TX) 5 13:53.6 SR 113.5 72
78 Morgan Rogers 9 San Antonio Cole (TX) 4 13:54 113.5 73
79 Brianna Palacios 11 Mineola (TX) 2 13:55.2 113.3 74
80 Meadow Guillen 11 Luling (TX) 1 13:55.7 113.2 75
81 Angie Wolf 9 Ponder (TX) 2 13:55.7 113.2 76
82 Tamarah Willis 9 McGregor (TX) 5 13:56.5 113.1 77
83 Mattie Brown 11 Franklin (WA) 1 13:56.9 SR 113.1 78
84 Abbi Brown 9 Fredericksburg (TX) 1 13:58.7 112.8 79
85 Raeley Sebek 10 Rogers (MN) 3 14:00.2 SR 112.6 80
86 Makenzie Hamilton 11 McGregor (TX) 6 14:00.4 SR 112.6 81
87 Milagros Moncada 9 Hamilton (MI) 6 14:01.4 112.5 82
88 Audrey Herrera 12 Fredericksburg (TX) 2 14:01.6 SR 112.4 83
89 Caroline Castleberry 10 Mineola (TX) 3 14:02 112.4 84
90 Brooklyn Poe 9 Lorena (TX) 4 14:02.2 112.4 85
91 Karsyn Blahuta 10 Moulton (TX) 1 14:04.6 PR 112.1 86
92 Ava Jaime 9 Farwell (MI) 5 14:04.6 PR 112.1 87
93 Audra Peters 10 Troy (MI) 2 14:04.8 SR 112.0 88
94 Maribela Castillo 10 San Antonio Cole (TX) 5 14:05.4 SR 111.9 89
95 Deila Lozano 11 IDEA Pharr (TX) 3 14:07 SR 111.7 90
96 Ximena Ventura 12 Lasara (TX) 1 14:08.2 111.6 91
97 Gracen McMurtry 9 Troy (MI) 3 14:12.3 PR 111.0 92
98 Kenley Howard 9 Goldthwaite (TX) 6 14:13.3 SR 110.9 93
99 Cassidy Slavinski 11 Tilden McMullen County (TX) 3 14:15.5 110.6 94
100 Katelynn Lemke 11 Rogers (MN) 4 14:17.1 110.4 95
101 Rylie Chiles 9 Austin Regents (TX) 2 14:17.9 110.3 96
102 Cheyenne Smith 10 Franklin (WA) 2 14:18.7 SR 110.2 97
103 Roselyn Gaona 11 Santa Maria (CA) 2 14:19.3 SR 110.1 98
104 Elizabeth Jacobo 12 Pollok Central (TX) 3 14:19.4 110.1 99
105 Tagun Cary 9 Veribest (TX) 1 14:19.5 PR 110.1 100
106 Annslee Tarpley 9 Lipan (TX) 2 14:20 110.1 101
107 Savannah Smith 10 Franklin (WA) 3 14:21.4 SR 109.9 102
108 Lindsey Grelle 12 Priddy (TX) 1 14:22.3 109.8 103
109 Madison Henkes 12 Hamilton (MI) 7 14:23.8 109.6 104
110 Alaina Mungia 11 Rogers (MN) 5 14:25.7 109.3 105
111 Sydney Miller 10 Muenster (TX) 5 14:26.1 SR 109.3 106
112 Michaela Marquez 11 IDEA Kyle (TX) 1 14:26.8 SR 109.2 107
113 Alisha Wille 12 Fredericksburg (TX) 3 14:26.9 SR 109.2 108
114 Jessica Stansell 10 Maypearl (TX) 3 14:27.9 109.0 109
115 Ileena Ruvalcaba 11 Crystal City (TX) 1 14:29 108.9
116 Madilyn Landry 11 Lorena (TX) 5 14:30.7 108.7 110
117 Xaviera Smith 11 Ponder (TX) 3 14:34.8 108.2 111
118 Piper Hanson 9 Hamilton (MI) 8 14:35.7 108.1
119 Eva Baker 10 Port Aransas (TX) 2 14:38 107.8 112
120 Lorena Cerda 11 Progreso (TX) 2 14:38.2 SR 107.8 113
121 Jillian Reed 9 Franklin (WA) 4 14:40.4 PR 107.5 114
122 London Yanity 10 Tilden McMullen County (TX) 4 14:40.6 107.5 115
123 Vivienne Issa 9 Austin Regents (TX) 3 14:41.9 PR 107.3 116
124 Katie David 10 Tilden McMullen County (TX) 5 14:42.5 107.2 117
125 Rhylie Phillips 10 Dalhart (TX) 7 14:43.8 SR 107.1 118
126 Kinlee Mills 11 Tilden McMullen County (TX) 6 14:44.5 107.0 119
127 Grace Byrkit 11 Austin Regents (TX) 4 14:45 106.9 120
128 Jnessa Nickles 9 Dilley (TX) 2 14:45.8 106.8 121
129 Ella Everett 11 Austin Royals (TX) 1 14:48.1 106.6
130 Madeline Pospisil 12 San Antonio Cole (TX) 6 14:49.1 106.4 122
131 Evelyn Prailey 9 Ponder (TX) 4 14:49.7 106.4 123
132 Zoe Pardo 11 Luling (TX) 2 14:50.9 106.2 124
133 Estefania Colchado 12 Moulton (TX) 2 14:51.1 106.2 125
134 Lilly Johnson 9 Muenster (TX) 6 14:51.2 PR 106.2 126
135 Victoria Carbajal-Rebo 10 Florence (AL) 2 14:51.6 SR 106.2 127
136 Alinah Vidaurri 9 Rogers (MN) 6 14:51.7 PR 106.1 128
137 Seidy Carbajal-Ugarte 11 Florence (AL) 3 14:51.7 SR 106.1 129
138 Yaretzy Cruz 11 Franklin (WA) 5 14:52.1 106.1 130
139 Marissa Rodriguez 12 Franklin (WA) 6 14:52.3 PR 106.1 131
140 Kylee O'Quinn 11 Franklin (WA) 7 14:53 SR 106.0 132
141 Analia Martinez 9 Crystal City (TX) 2 14:53.1 SR 106.0
142 Elizabeth DeLeon 9 Maypearl (TX) 4 14:53.5 105.9 133
143 Jaklyn Bradley 10 Farwell (MI) 6 14:56.7 SR 105.5 134
144 Sadie Carrell 11 Austin Royals (TX) 2 14:58.4 PR 105.3
145 Anne Barry 10 Lorena (TX) 6 15:00.9 105.1 135
146 Kinsley Robinson 9 Lipan (TX) 3 15:01.5 105.0 136
147 Grace Kistler 11 Universal City Randolph (TX) 3 15:02 SR 104.9
148 Monica Zamarripa 12 Pollok Central (TX) 4 15:03.1 SR 104.8 137
149 Aby (Abygail) Tinajero 12 Moulton (TX) 3 15:04.5 104.6 138
150 Amber Grelle 9 Priddy (TX) 2 15:06 104.5 139
151 Presley Calhoun 11 Ponder (TX) 5 15:06.6 104.4 140
152 Ashlyn Clark 12 Lipan (TX) 4 15:07.2 104.3 141
153 Kassandra Salinas 11 IDEA Kyle (TX) 2 15:07.7 PR 104.3 142
154 Jackeline Chiroy 11 IDEA Kyle (TX) 3 15:08.8 SR 104.1 143
155 Lillian Pruett 10 Luling (TX) 3 15:09.7 104.0 144
156 Amber Novosad 11 Rogers (MN) 7 15:10.2 104.0 145
157 Audrina Galaz 9 Mineola (TX) 4 15:11.1 103.9 146
158 Milca Ramirez 11 Keene Smith (TX) 3 15:11.6 103.8 147
159 Ava Hacker 9 Muenster (TX) 7 15:11.7 103.8 148
160 Isabella Issa 12 Austin Regents (TX) 5 15:12.3 103.7 149
161 Maddie (Madison) Mendez 12 Great Hearts Northern Oaks (TX) 4 15:13.5 103.6 150
162 Kyleigh Nugent 11 Lorena (TX) 7 15:14 103.5 151
163 Evelyn Zenteno 12 IDEA Pharr (TX) 4 15:14.3 103.5 152
164 Madeline Fuchs 11 Rogers (MN) 8 15:14.4 SR 103.5
165 Alec Alvarado 10 Ingram Moore (TX) 3 15:14.8 SR 103.4 153
166 Lilliana Russell 11 Meridian World (TX) 1 15:14.9 103.4 154
167 Madilynn (Madi) Hamilton 11 McGregor (TX) 7 15:15.4 SR 103.4 155
168 Katherine (Kate) Davis 10 Great Hearts Northern Oaks (TX) 5 15:15.4 103.4 156
169 Avery Applewhite 11 Burton (CA) 2 15:15.9 103.3
170 Gema Thiele 9 Fredericksburg (TX) 4 15:16 PR 103.3 157
171 Delilah Collings 9 Port Aransas (TX) 3 15:17.3 103.2 158
172 Avery Lickteig 9 Austin Regents (TX) 6 15:18.1 PR 103.1 159
173 Kayla Tawater 10 Hamilton (MI) 9 15:18.8 103.0
174 Addison Rhoden 9 Franklin (WA) 8 15:18.9 PR 103.0
175 Stephany Macias 12 IDEA Pharr (TX) 5 15:20.9 SR 102.8 160
176 Ramirez Gabby 10 Progreso (TX) 3 15:21.6 102.7 161
177 Makayla Schultz 10 Ponder (TX) 6 15:21.8 102.7 162
178 Kaitlyn Johnson 12 Universal City Randolph (TX) 4 15:22.2 102.6
179 Jaycey Fedro 9 Troy (MI) 4 15:22.5 102.6 163
180 Lucero Ruiz-Perez 10 McGregor (TX) 8 15:24.3 SR 102.4
181 Olivia Griffeth 11 Great Hearts Northern Oaks (TX) 6 15:24.5 102.4 164
182 Avery Dozier 12 Zephyr (TX) 1 15:25 102.3 165
183 Caitlin Elizondo 12 Austin Regents (TX) 7 15:25.6 102.2 166
184 Yareli Hernandez 10 Mineola (TX) 5 15:26.1 102.2 167
185 Avery Stinedurf 9 Maypearl (TX) 5 15:26.7 102.1 168
186 Selia Garcia 12 Pollok Central (TX) 5 15:27.5 102.0 169
187 Evelyn Jett 11 Crystal City (TX) 3 15:28.3 101.9
188 Quinnlan Dietrich 9 Lorena (TX) 8 15:28.8 101.9
189 Ellie Storey 11 Veribest (TX) 2 15:29.2 PR 101.8 170
190 Edelyn Rodriguez 9 Dilley (TX) 3 15:29.6 101.8 171
191 Emmarie Dick 11 Troy (MI) 5 15:31.3 SR 101.6 172
192 Ariadna Gonzalez 9 IDEA Pharr (TX) 6 15:32.2 101.5 173
193 Jessica Aguilar-Torres 12 Luling (TX) 4 15:33 101.4 174
194 Michelle Campos 12 Keene Smith (TX) 4 15:37.3 101.0 175
195 Ellis Burrill 12 Port Aransas (TX) 4 15:38.1 100.9 176
196 Kate Hobbs 10 Austin Royals (TX) 3 15:41.1 SR 100.6
197 Karissa Seider 11 Priddy (TX) 3 15:41.7 100.5 177
198 Cloey Smith 9 McGregor (TX) 9 15:43 100.4
199 Bianca Gonzalez 12 Lasara (TX) 2 15:43.4 100.3 178
200 Azaela Espinoza 9 Dilley (TX) 4 15:44.5 100.2 179
201 Ella Harris 9 Maypearl (TX) 6 15:44.5 100.2 180
202 Annie Eilers 9 Fredericksburg (TX) 5 15:46.2 PR 100.0 181
203 Hilarie Rios 9 Ingram Moore (TX) 4 15:47.2 99.9 182
204 Addison Long 9 San Antonio Cole (TX) 7 15:47.6 99.9 183
205 Gabby (Gabriella) Fleitman 12 Muenster (TX) 8 15:49 SR 99.7
206 Taylor Thornton 11 Maypearl (TX) 7 15:49.7 99.7 184
207 Emily Morgan 11 Austin Royals (TX) 4 15:50.1 99.6
208 Ayla Pils 9 Franklin (WA) 9 15:50.4 PR 99.6
209 Harley Glover 12 Lipan (TX) 5 15:51.2 99.5 185
210 Paulette Gomez 10 Santa Maria (CA) 3 15:51.4 99.5 186
211 Alise Brown 10 Franklin (WA) 10 15:53.5 99.3
212 Lily Ayala 9 Dilley (TX) 5 15:55.5 PR 99.1 187
213 Annika Philippart 10 NYOS Charter (TX) 1 15:56.2 99.0
214 Addisyn Grieve 9 Moulton (TX) 4 15:56.4 PR 98.9 188
215 Hannah McClain 9 Ponder (TX) 7 15:58.6 98.7 189
216 Jordin Edrich 11 Meridian World (TX) 2 15:59 98.7 190
217 Danayla Jones 11 Keene Smith (TX) 5 16:01.9 98.4 191
218 Daniela Luna 11 Ingram Moore (TX) 5 16:03.5 98.2 192
219 Lucia Garcia 10 Great Hearts Northern Oaks (TX) 7 16:06.2 SR 97.9 193
220 Bailey Wormstadt 11 Troy (MI) 6 16:08.5 97.7 194
221 Addilyn Feemster 9 Veribest (TX) 3 16:10.5 PR 97.5 195
222 Katie Richter 9 Moulton (TX) 5 16:10.8 PR 97.5 196
223 Natalie Ramirez 9 Santa Maria (CA) 4 16:12.6 PR 97.3 197
224 Zuly Martinez 8 IDEA Kyle (TX) 4 16:15.4 PR 106.4 198
225 Carmen Rangel 11 Santa Maria (CA) 5 16:16.3 96.9 199
226 Finley Wyrick 9 Ponder (TX) 8 16:17.1 96.9
227 Briar Dohner 9 Great Hearts Northern Oaks (TX) 8 16:17.6 SR 96.8
228 Keira McKinney 12 Poth (TX) 6 16:18.6 96.7 200
229 Ma'Riah Cotton 11 Maypearl (TX) 8 16:21.4 96.4
230 Cheyenne Pierce 11 Florence (AL) 4 16:21.9 SR 96.4 201
231 Valeria Romero 9 Ingram Moore (TX) 6 16:23.7 96.2 202
232 Elena Medrano 10 Great Hearts Northern Oaks (TX) 9 16:27 95.9
233 Marisol Manzano 10 Moulton (TX) 6 16:27.7 SR 95.8 203
234 Caitlin Ensor 10 Ponder (TX) 9 16:27.9 95.8
235 Elaine Urich 9 Port Aransas (TX) 5 16:32.2 PR 95.4 204
236 Rihemie Padron 9 Pollok Central (TX) 6 16:33.7 PR 95.2 205
237 Daniela Guevara 10 Ingram Moore (TX) 7 16:35.5 95.1 206
238 Klarissa Vasquez 12 Dilley (TX) 6 16:36.4 95.0 207
239 Addison Simper 10 Moulton (TX) 7 16:37.9 SR 94.8 208
240 Anne Glasgow 11 Rogers (MN) 9 16:38.2 94.8
241 Angeles Juarez 11 Moulton (TX) 8 16:38.8 PR 94.8
242 Ximena Rubio 11 Pollok Central (TX) 7 16:39.8 SR 94.7 209
243 Saylor Serrat 11 Farwell (MI) 7 16:41.2 SR 94.5 210
244 Jewlea Tate 10 Dilley (TX) 7 16:42.7 94.4 211
245 Savannah Stanford 10 Maypearl (TX) 9 16:45 94.2
246 Makenzie Peaslee 12 Port Aransas (TX) 6 16:46.1 94.1 212
247 Priscilla Almazan 10 Santa Maria (CA) 6 16:48.6 PR 93.8 213
248 Sofia Medina 8 IDEA Kyle (TX) 5 16:51.3 SR 102.6 214
249 Regina Hill 9 Pollok Central (TX) 8 16:52.5 PR 93.5
250 Destiny Gandy 10 Mineola (TX) 6 16:57.3 93.0 215
251 Paisley Hughes 9 Troy (MI) 7 16:58.4 PR 216
252 Carianna Garza 9 Lasara (TX) 3 16:59.8 PR 92.8 217
253 Natalie Seider 11 Priddy (TX) 4 17:00.7 92.7 218
254 Jasmin Bonilla-Holguin 10 Florence (AL) 5 17:00.8 SR 92.7 219
255 Malana Poindexter 11 Meridian World (TX) 3 17:01.2 92.7 220
256 Gabre Reeves 10 Meridian World (TX) 4 17:02.2 92.6 221
257 Sophie DeVooght 11 IDEA Kyle (TX) 6 17:05.4 SR 92.3 222
258 Emery Neal 9 Ingram Moore (TX) 8 17:07.2 PR 92.1
259 Brisia Zamarron 9 Progreso (TX) 4 17:08.9 92.0 223
260 Mya Velasquez 11 Lasara (TX) 4 17:12.9 91.6 224
261 Kaydance Bode 9 Port Aransas (TX) 7 17:13.8 91.6 225
262 Miley Leal 10 IDEA Pharr (TX) 7 17:14 91.5 226
263 Edith Estudillo 12 Ponder (TX) 10 17:15.7 91.4
264 Marley Boatwright 9 Hamilton (MI) 10 17:25.1 90.6
265 Kirstan King 9 Zephyr (TX) 2 17:27.6 90.3 227
266 Kaylynn Vavrecka 11 Burton (CA) 3 17:31.4 90.0
267 Wendy Santamaria 10 Luling (TX) 5 17:47.1 88.7 228
268 Victoria Gully 10 Veribest (TX) 4 17:51.3 PR 88.3 229
269 Gabby Ramon 10 Santa Maria (CA) 7 17:52.4 88.2 230
270 Iliana Resendez 9 Progreso (TX) 5 17:58.7 PR 87.7 231
271 Rayni Sims 9 Maypearl (TX) 10 18:00.2
272 Juniper Landolt 9 Port Aransas (TX) 8 18:00.4 87.6
273 Charlotte Ainsworth 12 Great Hearts Northern Oaks (TX) 10 18:00.6 87.6
274 Emily Bolin 12 Veribest (TX) 5 18:01.9 SR 87.5 232
275 Raistlyn Schwartz 12 Veribest (TX) 6 18:02 PR 87.5 233
276 Jacelyn Cruces 11 Ingram Moore (TX) 9 18:07.7 87.0
277 Jaden Rief 12 Ingram Moore (TX) 10 18:14.8 86.4
278 Itzelle Ventura 9 Lasara (TX) 5 18:18.6 86.2 234
279 Liana Gonzalez 11 Lasara (TX) 6 18:23.5 85.8 235
280 Aldyn Johnson 12 Poth (TX) 7 18:42.5 84.3 236
281 Sariette Flores 12 Pollok Central (TX) 9 18:47.3 83.9
282 Anika Arreazola 10 Progreso (TX) 6 18:56.9 PR 83.2 237
283 Ieishia Ruvalcaba 11 Crystal City (TX) 4 19:03.3 82.8
284 kenna Holmsley 10 Priddy (TX) 5 19:23.3 81.3 238
285 Ana Sofia Harper-Araya 9 Meridian World (TX) 5 19:33.7 80.6 239
286 Skyler Leech 10 Port Aransas (TX) 9 19:39.5 PR 80.2
287 Madison McClain 11 Zephyr (TX) 3 19:50.9 SR 240
288 Harper Javery 9 NYOS Charter (TX) 2 20:22 SR 77.4
289 Marley LePak 9 Meridian World (TX) 6 20:36.6 PR 76.5 241
290 Helen Rangel 9 IDEA Kyle (TX) 7 20:39.1 SR 76.4 242
291 Ruth Rodriguez 9 Santa Maria (CA) 8 20:53.8 PR 75.5
292 Bella Baker 11 Zephyr (TX) 4 21:07.2 74.7 243
293 Adanech Moore 11 NYOS Charter (TX) 3 21:32.7 73.2
294 Bethany Blair 12 Zephyr (TX) 5 21:57.2 SR 71.8 244
Something wrong on this page? Report it →